Simultaneous Nadir Overpasses (SNOs) Predictions

Prediction of SNOs between GOES-16 and TERRA Satellite Orbit:

Table of predicted SNOs for the next 14.0 days since TLE Epoch: 11/14/2025
Index Date Time (GOES-16) GOES-16 Lat,Lon TERRA Lat,Lon Distance(km) Time Diff (sec)
1 11/16/2025 15:54:25 0.04,-104.71 -0.75,-101.05 416.03 80
2 11/17/2025 04:13:55 -0.04,-104.65 -0.29,-105.80 130.05 80
3 11/19/2025 03:51:43 -0.04,-104.65 0.71,-101.09 404.40 80
4 11/19/2025 16:11:05 0.04,-104.71 0.26,-105.81 124.98 80
5 11/21/2025 15:54:12 0.05,-104.71 -0.72,-101.10 409.83 80
6 11/22/2025 04:13:42 -0.05,-104.65 -0.31,-105.85 135.95 80
7 11/24/2025 03:51:28 -0.06,-104.65 0.65,-101.13 398.80 80
8 11/24/2025 16:10:50 0.06,-104.70 0.29,-105.85 130.83 80
9 11/26/2025 15:53:55 0.07,-104.70 -0.65,-101.13 404.56 80
10 11/27/2025 04:13:25 -0.06,-104.65 -0.30,-105.89 140.71 80
